Time,TemperatureF,DewpointF,PressureIn,WindDirection,WindDirectionDegrees,WindSpeedMPH,WindSpeedGustMPH,Humidity,HourlyPrecipIn,Conditions,Clouds,dailyrainin,SoftwareType,DateUTC
2014-02-20 00:00:00,43.9,37.2,29.62,SSE,152,4.0,15.0,77,0.00,,,-99.99,meteobridge,2014-02-20 06:00:00,
2014-02-20 00:05:00,44.2,37.6,29.62,SSE,148,6.9,14.1,77,0.00,,,0.00,meteobridge,2014-02-20 06:05:00,
2014-02-20 00:10:00,44.2,37.6,29.62,SE,134,4.0,14.1,77,0.00,,,0.00,meteobridge,2014-02-20 06:10:00,
2014-02-20 00:15:00,44.4,37.6,29.62,SE,145,2.0,6.0,77,0.00,,,0.00,meteobridge,2014-02-20 06:15:00,
2014-02-20 00:20:00,44.6,37.8,29.61,SE,131,4.0,15.0,77,0.00,,,0.00,meteobridge,2014-02-20 06:20:00,
2014-02-20 00:25:00,44.8,37.8,29.60,SSE,148,6.0,12.1,76,0.00,,,0.00,meteobridge,2014-02-20 06:25:00,
2014-02-20 00:30:00,45.0,38.1,29.60,SSE,150,2.9,15.0,77,0.00,,,0.00,meteobridge,2014-02-20 06:30:00,
2014-02-20 00:35:00,45.1,37.9,29.60,SSE,153,2.9,11.0,76,0.00,,,0.00,meteobridge,2014-02-20 06:35:00,
2014-02-20 00:40:00,45.7,38.5,29.60,SSE,148,4.9,14.1,76,0.00,,,0.00,meteobridge,2014-02-20 06:40:00,
2014-02-20 00:45:00,45.9,38.7,29.60,SE,141,14.1,16.1,76,0.00,,,0.00,meteobridge,2014-02-20 06:45:00,
2014-02-20 00:50:00,46.2,39.0,29.59,SE,144,8.9,14.1,76,0.00,,,0.00,meteobridge,2014-02-20 06:50:00,
2014-02-20 00:55:00,46.6,39.0,29.59,SSE,150,12.1,17.0,75,0.00,,,0.00,meteobridge,2014-02-20 06:55:00,
2014-02-20 01:00:00,46.8,39.2,29.59,SSE,148,14.1,15.0,75,0.00,,,0.00,meteobridge,2014-02-20 07:00:00,
2014-02-20 01:05:00,46.9,39.4,29.58,SE,139,13.0,14.1,75,0.00,,,0.00,meteobridge,2014-02-20 07:05:00,
2014-02-20 01:10:00,46.9,39.4,29.58,SSE,159,6.9,15.0,75,0.00,,,0.00,meteobridge,2014-02-20 07:10:00,
2014-02-20 01:15:00,46.9,39.0,29.57,South,177,6.9,15.0,74,0.00,,,0.00,meteobridge,2014-02-20 07:15:00,
2014-02-20 01:20:00,47.1,39.2,29.57,SE,140,4.9,14.1,74,0.00,,,0.00,meteobridge,2014-02-20 07:20:00,
2014-02-20 01:25:00,47.1,39.6,29.57,SE,145,12.1,13.0,75,0.00,,,0.00,meteobridge,2014-02-20 07:25:00,
2014-02-20 01:30:00,47.3,39.4,29.57,SSE,164,4.9,12.1,74,0.00,,,0.00,meteobridge,2014-02-20 07:30:00,
2014-02-20 01:35:00,47.3,39.4,29.57,SSE,148,8.9,14.1,74,0.00,,,0.00,meteobridge,2014-02-20 07:35:00,
2014-02-20 01:40:00,47.5,39.6,29.57,SSE,161,4.9,15.0,74,0.00,,,0.00,meteobridge,2014-02-20 07:40:00,
2014-02-20 01:45:00,47.7,39.7,29.57,SSE,165,2.0,13.0,74,0.00,,,0.00,meteobridge,2014-02-20 07:45:00,
2014-02-20 01:50:00,47.8,39.9,29.56,SSE,167,6.0,12.1,74,0.00,,,0.00,meteobridge,2014-02-20 07:50:00,
2014-02-20 01:55:00,48.0,40.1,29.56,SSE,162,12.1,13.0,74,0.00,,,0.00,meteobridge,2014-02-20 07:55:00,
2014-02-20 02:00:00,48.0,40.1,29.56,SSE,154,14.1,14.1,74,0.00,,,0.00,meteobridge,2014-02-20 08:00:00,
2014-02-20 02:05:00,48.2,40.3,29.56,SSE,150,8.1,8.9,74,0.00,,,0.00,meteobridge,2014-02-20 08:05:00,
2014-02-20 02:11:00,48.4,40.5,29.56,SSE,159,4.9,6.0,74,0.00,,,0.00,meteobridge,2014-02-20 08:11:00,
2014-02-20 02:16:00,48.4,40.5,29.55,SSE,153,4.9,8.9,74,0.00,,,0.00,meteobridge,2014-02-20 08:16:00,
2014-02-20 02:21:00,48.4,40.5,29.55,SSE,155,2.9,4.0,74,0.00,,,0.00,meteobridge,2014-02-20 08:21:00,
2014-02-20 02:26:00,48.4,40.5,29.55,SSE,155,0.0,4.0,74,0.00,,,0.00,meteobridge,2014-02-20 08:26:00,
2014-02-20 02:31:00,48.6,40.6,29.55,SSE,155,0.9,2.0,74,0.00,,,0.00,meteobridge,2014-02-20 08:31:00,
2014-02-20 02:36:00,48.6,40.6,29.55,SSE,156,0.0,2.0,74,0.00,,,0.00,meteobridge,2014-02-20 08:36:00,
2014-02-20 02:41:00,48.6,40.6,29.54,SSE,156,0.0,0.0,74,0.00,,,0.00,meteobridge,2014-02-20 08:41:00,
2014-02-20 02:46:00,48.6,40.6,29.54,SSE,156,0.9,2.0,74,0.00,,,0.00,meteobridge,2014-02-20 08:46:00,
2014-02-20 02:51:00,48.4,40.5,29.53,SSE,156,0.0,0.0,74,0.00,,,0.00,meteobridge,2014-02-20 08:51:00,
2014-02-20 02:56:00,48.4,40.5,29.54,SSE,156,0.0,0.0,74,0.00,,,0.00,meteobridge,2014-02-20 08:56:00,
2014-02-20 03:01:00,48.2,40.3,29.53,SSE,156,0.0,0.0,74,0.00,,,0.00,meteobridge,2014-02-20 09:01:00,
2014-02-20 03:06:00,48.0,40.1,29.53,SSE,156,0.0,2.0,74,0.00,,,0.00,meteobridge,2014-02-20 09:06:00,
2014-02-20 03:12:00,48.0,40.1,29.53,SSE,156,0.0,0.0,74,0.00,,,0.00,meteobridge,2014-02-20 09:12:00,
2014-02-20 03:17:00,48.0,40.5,29.52,SSE,156,0.0,0.0,75,0.00,,,0.00,meteobridge,2014-02-20 09:17:00,
2014-02-20 03:22:00,48.0,40.5,29.52,SSE,156,0.0,0.0,75,0.00,,,0.00,meteobridge,2014-02-20 09:22:00,
2014-02-20 03:27:00,48.0,40.1,29.52,SSE,156,0.0,0.0,74,0.00,,,0.00,meteobridge,2014-02-20 09:27:00,
2014-02-20 03:32:00,47.8,39.9,29.52,SSE,156,0.0,0.0,74,0.00,,,0.00,meteobridge,2014-02-20 09:32:00,
2014-02-20 03:37:00,47.8,39.9,29.51,SSE,156,0.0,0.0,74,0.00,,,0.00,meteobridge,2014-02-20 09:37:00,
2014-02-20 03:42:00,47.7,40.1,29.51,SSE,156,0.0,0.0,75,0.00,,,0.00,meteobridge,2014-02-20 09:42:00,
2014-02-20 03:48:00,47.7,40.1,29.51,SSE,156,0.0,0.0,75,0.00,,,0.00,meteobridge,2014-02-20 09:48:00,
2014-02-20 03:53:00,47.7,40.1,29.51,SSE,156,2.0,2.0,75,0.00,,,0.00,meteobridge,2014-02-20 09:53:00,
2014-02-20 03:58:00,47.8,40.6,29.50,SSE,156,2.0,4.0,76,0.00,,,0.00,meteobridge,2014-02-20 09:58:00,
2014-02-20 04:03:00,47.8,40.6,29.50,SSE,156,0.0,0.0,76,0.01,,,0.01,meteobridge,2014-02-20 10:03:00,
2014-02-20 04:08:00,48.0,40.8,29.50,SSE,156,0.0,0.0,76,0.01,,,0.01,meteobridge,2014-02-20 10:08:00,
2014-02-20 04:13:00,48.2,41.0,29.49,SSE,156,0.0,0.0,76,0.01,,,0.01,meteobridge,2014-02-20 10:13:00,
2014-02-20 04:19:00,48.2,41.0,29.49,SSE,156,0.0,0.0,76,0.01,,,0.01,meteobridge,2014-02-20 10:19:00,
2014-02-20 04:24:00,48.0,40.8,29.49,SSE,156,0.9,0.9,76,0.01,,,0.01,meteobridge,2014-02-20 10:24:00,
2014-02-20 04:29:00,48.0,40.8,29.48,SSE,156,0.0,0.0,76,0.01,,,0.01,meteobridge,2014-02-20 10:29:00,
2014-02-20 04:34:00,47.8,40.6,29.48,SSE,156,0.0,0.0,76,0.01,,,0.01,meteobridge,2014-02-20 10:34:00,
2014-02-20 04:39:00,48.0,40.8,29.47,SSE,156,0.0,0.0,76,0.01,,,0.01,meteobridge,2014-02-20 10:39:00,
2014-02-20 04:44:00,48.0,40.8,29.47,SSE,156,0.0,0.0,76,0.01,,,0.01,meteobridge,2014-02-20 10:44:00,
2014-02-20 04:50:00,48.0,40.8,29.47,SSE,156,0.0,0.0,76,0.01,,,0.01,meteobridge,2014-02-20 10:50:00,
2014-02-20 04:55:00,48.0,40.8,29.47,SSE,156,0.0,0.0,76,0.01,,,0.01,meteobridge,2014-02-20 10:55:00,
2014-02-20 05:00:00,48.0,40.8,29.47,SSE,156,0.0,0.0,76,0.01,,,0.01,meteobridge,2014-02-20 11:00:00,
2014-02-20 05:05:00,48.0,41.2,29.47,SSE,156,0.0,0.0,77,0.00,,,0.01,meteobridge,2014-02-20 11:05:00,
2014-02-20 05:10:00,47.8,41.0,29.46,SSE,156,0.0,0.0,77,0.00,,,0.01,meteobridge,2014-02-20 11:10:00,
2014-02-20 05:16:00,47.8,41.0,29.46,SSE,156,0.0,0.0,77,0.00,,,0.01,meteobridge,2014-02-20 11:16:00,
2014-02-20 05:21:00,47.8,41.0,29.46,SSE,156,0.0,0.0,77,0.00,,,0.01,meteobridge,2014-02-20 11:21:00,
2014-02-20 05:26:00,48.0,41.2,29.46,SSE,156,0.0,2.9,77,0.00,,,0.01,meteobridge,2014-02-20 11:26:00,
2014-02-20 05:31:00,48.4,41.5,29.46,SSE,156,0.0,0.0,77,0.00,,,0.01,meteobridge,2014-02-20 11:31:00,
2014-02-20 05:36:00,48.7,42.3,29.46,SSE,156,0.0,0.0,78,0.00,,,0.01,meteobridge,2014-02-20 11:36:00,
2014-02-20 05:41:00,48.7,42.3,29.45,SSE,156,0.0,0.0,78,0.00,,,0.01,meteobridge,2014-02-20 11:41:00,
2014-02-20 05:46:00,48.7,42.3,29.46,SSE,156,0.9,2.0,78,0.00,,,0.01,meteobridge,2014-02-20 11:46:00,
2014-02-20 05:51:00,48.7,42.3,29.46,SSE,156,2.0,4.0,78,0.00,,,0.01,meteobridge,2014-02-20 11:51:00,
2014-02-20 05:56:00,48.7,42.3,29.45,SSE,156,0.0,2.9,78,0.00,,,0.01,meteobridge,2014-02-20 11:56:00,
2014-02-20 06:02:00,48.7,42.3,29.44,SSE,156,0.0,0.9,78,0.00,,,0.01,meteobridge,2014-02-20 12:02:00,
2014-02-20 06:07:00,48.9,42.4,29.44,SSE,156,0.0,2.9,78,0.00,,,0.01,meteobridge,2014-02-20 12:07:00,
2014-02-20 06:12:00,49.3,43.0,29.43,SSE,156,0.0,4.0,79,0.00,,,0.01,meteobridge,2014-02-20 12:12:00,
2014-02-20 06:17:00,49.8,43.9,29.42,SSE,156,0.0,2.9,80,0.00,,,0.01,meteobridge,2014-02-20 12:17:00,
2014-02-20 06:22:00,50.4,44.4,29.42,SSE,156,2.9,2.9,80,0.00,,,0.01,meteobridge,2014-02-20 12:22:00,
2014-02-20 06:27:00,50.9,45.0,29.42,SSE,156,2.9,2.9,80,0.00,,,0.01,meteobridge,2014-02-20 12:27:00,
2014-02-20 06:32:00,51.3,45.3,29.42,SSE,156,0.0,4.0,80,0.00,,,0.01,meteobridge,2014-02-20 12:32:00,
2014-02-20 06:37:00,51.4,45.5,29.41,SSE,156,0.0,4.0,80,0.00,,,0.01,meteobridge,2014-02-20 12:37:00,
2014-02-20 06:42:00,51.4,45.5,29.41,SSE,156,0.0,0.9,80,0.00,,,0.01,meteobridge,2014-02-20 12:42:00,
2014-02-20 06:47:00,51.6,45.7,29.41,SSE,156,0.9,2.9,80,0.00,,,0.01,meteobridge,2014-02-20 12:47:00,
2014-02-20 06:52:00,52.0,46.4,29.41,SSE,159,4.0,6.9,81,0.00,,,0.01,meteobridge,2014-02-20 12:52:00,
2014-02-20 06:57:00,52.3,46.8,29.41,SSE,161,4.0,8.9,81,0.00,,,0.01,meteobridge,2014-02-20 12:57:00,
2014-02-20 07:02:00,53.2,47.8,29.40,South,171,6.9,13.0,82,0.00,,,0.01,meteobridge,2014-02-20 13:02:00,
2014-02-20 07:07:00,54.1,49.1,29.40,SSE,165,6.0,13.0,83,0.00,,,0.01,meteobridge,2014-02-20 13:07:00,
2014-02-20 07:12:00,55.0,50.0,29.40,SSE,163,6.9,15.0,83,0.00,,,0.01,meteobridge,2014-02-20 13:12:00,
2014-02-20 07:17:00,55.8,50.7,29.39,South,173,12.1,15.0,83,0.00,,,0.01,meteobridge,2014-02-20 13:17:00,
2014-02-20 07:22:00,56.5,51.6,29.39,SSE,168,8.1,15.0,84,0.00,,,0.01,meteobridge,2014-02-20 13:22:00,
2014-02-20 07:27:00,56.8,52.0,29.39,South,172,10.1,19.9,84,0.00,,,0.01,meteobridge,2014-02-20 13:27:00,
2014-02-20 07:32:00,57.0,52.2,29.39,South,171,12.1,16.1,84,0.00,,,0.01,meteobridge,2014-02-20 13:32:00,
2014-02-20 07:37:00,57.4,52.3,29.39,South,182,11.0,19.0,83,0.00,,,0.01,meteobridge,2014-02-20 13:37:00,
2014-02-20 07:42:00,57.6,52.5,29.39,SSE,159,6.9,15.0,83,0.00,,,0.01,meteobridge,2014-02-20 13:42:00,
2014-02-20 07:47:00,57.6,52.5,29.39,SSE,161,12.1,12.1,83,0.00,,,0.01,meteobridge,2014-02-20 13:47:00,
2014-02-20 07:53:00,57.9,53.1,29.39,South,177,8.9,16.1,84,0.00,,,0.01,meteobridge,2014-02-20 13:53:00,
2014-02-20 07:58:00,58.3,53.4,29.40,South,169,10.1,17.9,84,0.00,,,0.01,meteobridge,2014-02-20 13:58:00,
2014-02-20 08:03:00,58.6,53.8,29.40,SSE,159,12.1,17.9,84,0.00,,,0.01,meteobridge,2014-02-20 14:03:00,
2014-02-20 08:08:00,59.0,54.1,29.40,South,171,6.9,15.0,84,0.00,,,0.01,meteobridge,2014-02-20 14:08:00,
2014-02-20 08:13:00,59.2,54.3,29.40,South,178,11.0,19.0,84,0.00,,,0.01,meteobridge,2014-02-20 14:13:00,
2014-02-20 08:18:00,59.4,54.5,29.40,SSE,164,10.1,16.1,84,0.00,,,0.01,meteobridge,2014-02-20 14:18:00,
2014-02-20 08:23:00,59.5,54.7,29.40,South,170,14.1,17.0,84,0.00,,,0.01,meteobridge,2014-02-20 14:23:00,
2014-02-20 08:28:00,59.5,54.7,29.40,SSE,165,11.0,16.1,84,0.00,,,0.01,meteobridge,2014-02-20 14:28:00,
2014-02-20 08:33:00,59.5,54.7,29.39,South,173,4.9,15.0,84,0.00,,,0.01,meteobridge,2014-02-20 14:33:00,
2014-02-20 08:38:00,59.7,54.9,29.39,SSE,163,8.9,17.0,84,0.00,,,0.01,meteobridge,2014-02-20 14:38:00,
2014-02-20 08:43:00,59.7,55.2,29.39,SSE,167,14.1,15.0,85,0.00,,,0.01,meteobridge,2014-02-20 14:43:00,
2014-02-20 08:48:00,59.9,55.0,29.38,SSE,155,6.0,15.0,84,0.00,,,0.01,meteobridge,2014-02-20 14:48:00,
2014-02-20 08:53:00,60.1,55.2,29.38,SSE,168,10.1,14.1,84,0.00,,,0.01,meteobridge,2014-02-20 14:53:00,
2014-02-20 08:58:00,60.1,55.2,29.37,SSE,166,6.9,16.1,84,0.00,,,0.01,meteobridge,2014-02-20 14:58:00,
2014-02-20 09:03:00,60.3,55.4,29.36,SSE,168,10.1,15.0,84,0.00,,,0.01,meteobridge,2014-02-20 15:03:00,
2014-02-20 09:08:00,60.6,56.1,29.36,South,171,8.9,17.9,85,0.00,,,0.01,meteobridge,2014-02-20 15:08:00,
2014-02-20 09:13:00,61.2,56.7,29.36,SE,142,6.0,19.9,85,0.00,,,0.01,meteobridge,2014-02-20 15:13:00,
2014-02-20 09:18:00,61.3,56.5,29.36,South,175,11.0,17.9,84,0.00,,,0.01,meteobridge,2014-02-20 15:18:00,
2014-02-20 09:23:00,61.7,57.2,29.35,SSE,151,14.1,21.0,85,0.00,,,0.01,meteobridge,2014-02-20 15:23:00,
2014-02-20 09:28:00,62.1,57.2,29.35,SSE,165,4.9,14.1,84,0.00,,,0.01,meteobridge,2014-02-20 15:28:00,
2014-02-20 09:33:00,62.4,57.6,29.34,South,175,10.1,15.0,84,0.00,,,0.01,meteobridge,2014-02-20 15:33:00,
2014-02-20 09:38:00,62.6,57.7,29.33,SSE,162,11.0,17.0,84,0.00,,,0.01,meteobridge,2014-02-20 15:38:00,
2014-02-20 09:43:00,63.0,58.1,29.34,South,171,6.0,16.1,84,0.00,,,0.01,meteobridge,2014-02-20 15:43:00,
2014-02-20 09:48:00,63.1,58.3,29.33,SSE,159,6.9,17.0,84,0.00,,,0.01,meteobridge,2014-02-20 15:48:00,
2014-02-20 09:53:00,63.1,58.3,29.33,SSE,164,10.1,15.0,84,0.00,,,0.01,meteobridge,2014-02-20 15:53:00,
2014-02-20 09:59:00,63.1,58.3,29.32,South,173,15.0,23.0,84,0.00,,,0.01,meteobridge,2014-02-20 15:59:00,
2014-02-20 10:04:00,63.3,58.5,29.31,SSE,159,12.1,17.9,84,0.00,,,0.01,meteobridge,2014-02-20 16:04:00,
2014-02-20 10:09:00,63.3,58.1,29.31,SSE,168,6.9,16.1,83,0.00,,,0.01,meteobridge,2014-02-20 16:09:00,
2014-02-20 10:14:00,63.5,58.3,29.31,South,170,6.9,8.9,83,0.00,,,0.01,meteobridge,2014-02-20 16:14:00,
2014-02-20 10:19:00,63.7,58.8,29.30,SSE,161,13.0,17.9,84,0.00,,,0.01,meteobridge,2014-02-20 16:19:00,
2014-02-20 10:24:00,64.0,59.2,29.29,SSW,192,14.1,19.0,84,0.00,,,0.01,meteobridge,2014-02-20 16:24:00,
2014-02-20 10:29:00,64.4,59.2,29.29,South,173,10.1,17.0,83,0.00,,,0.01,meteobridge,2014-02-20 16:29:00,
2014-02-20 10:34:00,64.6,59.4,29.29,SSE,167,11.0,21.0,83,0.00,,,0.01,meteobridge,2014-02-20 16:34:00,
2014-02-20 10:39:00,64.8,59.5,29.29,South,179,17.0,21.9,83,0.00,,,0.01,meteobridge,2014-02-20 16:39:00,
2014-02-20 10:44:00,64.9,59.4,29.28,SSE,162,6.9,15.0,82,0.00,,,0.01,meteobridge,2014-02-20 16:44:00,
2014-02-20 10:49:00,64.9,59.4,29.28,SSE,154,14.1,23.9,82,0.00,,,0.01,meteobridge,2014-02-20 16:49:00,
2014-02-20 10:54:00,64.8,59.2,29.28,South,180,11.0,21.9,82,0.00,,,0.01,meteobridge,2014-02-20 16:54:00,
2014-02-20 10:59:00,64.8,59.2,29.28,South,176,8.9,21.9,82,0.00,,,0.01,meteobridge,2014-02-20 16:59:00,
2014-02-20 11:04:00,64.6,59.0,29.28,SSE,162,4.9,19.9,82,0.00,,,0.01,meteobridge,2014-02-20 17:04:00,
2014-02-20 11:09:00,64.6,59.0,29.27,South,178,12.1,15.0,82,0.00,,,0.01,meteobridge,2014-02-20 17:09:00,
2014-02-20 11:14:00,64.6,59.0,29.27,SSE,164,12.1,17.9,82,0.00,,,0.01,meteobridge,2014-02-20 17:14:00,
2014-02-20 11:19:00,64.4,58.8,29.26,South,191,11.0,16.1,82,0.00,,,0.01,meteobridge,2014-02-20 17:19:00,
2014-02-20 11:24:00,64.4,58.8,29.26,SSE,160,6.0,15.0,82,0.00,,,0.01,meteobridge,2014-02-20 17:24:00,
2014-02-20 11:29:00,64.2,58.6,29.25,SSE,161,6.0,16.1,82,0.00,,,0.01,meteobridge,2014-02-20 17:29:00,
2014-02-20 11:34:00,64.4,58.8,29.25,SSE,159,8.9,19.0,82,0.00,,,0.01,meteobridge,2014-02-20 17:34:00,
2014-02-20 11:39:00,64.8,59.2,29.25,SSE,155,8.9,14.1,82,0.00,,,0.01,meteobridge,2014-02-20 17:39:00,
2014-02-20 11:44:00,64.9,59.4,29.24,SSE,157,15.0,21.0,82,0.00,,,0.01,meteobridge,2014-02-20 17:44:00,
2014-02-20 11:49:00,64.9,59.4,29.23,SSE,167,8.1,14.1,82,0.00,,,0.01,meteobridge,2014-02-20 17:49:00,
2014-02-20 11:55:00,65.1,59.5,29.23,South,180,4.0,17.9,82,0.00,,,0.01,meteobridge,2014-02-20 17:55:00,
2014-02-20 12:00:00,65.8,60.3,29.23,SSE,150,6.0,17.9,82,0.00,,,0.01,meteobridge,2014-02-20 18:00:00,
2014-02-20 12:05:00,66.4,60.4,29.22,South,180,4.9,14.1,81,0.00,,,0.01,meteobridge,2014-02-20 18:05:00,
2014-02-20 12:10:00,66.9,61.0,29.21,South,178,11.0,17.9,81,0.01,,,0.02,meteobridge,2014-02-20 18:10:00,
2014-02-20 12:15:00,67.6,61.5,29.21,SSE,166,6.9,13.0,81,0.01,,,0.02,meteobridge,2014-02-20 18:15:00,
2014-02-20 12:20:00,67.8,61.3,29.20,South,180,4.9,23.0,80,0.01,,,0.02,meteobridge,2014-02-20 18:20:00,
2014-02-20 12:25:00,68.4,61.9,29.19,South,187,4.9,17.0,80,0.01,,,0.02,meteobridge,2014-02-20 18:25:00,
2014-02-20 12:30:00,68.7,61.9,29.18,SSE,148,23.0,25.1,79,0.01,,,0.02,meteobridge,2014-02-20 18:30:00,
2014-02-20 12:35:00,69.1,61.9,29.17,South,178,8.9,21.0,78,0.01,,,0.02,meteobridge,2014-02-20 18:35:00,
2014-02-20 12:40:00,69.3,61.7,29.16,SSW,195,8.9,21.9,77,0.01,,,0.02,meteobridge,2014-02-20 18:40:00,
2014-02-20 12:45:00,69.6,62.1,29.16,SSE,167,13.0,21.0,77,0.01,,,0.02,meteobridge,2014-02-20 18:45:00,
2014-02-20 12:50:00,69.6,62.1,29.15,SSE,157,13.0,21.0,77,0.01,,,0.02,meteobridge,2014-02-20 18:50:00,
2014-02-20 12:55:00,69.4,61.5,29.15,SSE,159,12.1,15.0,76,0.01,,,0.02,meteobridge,2014-02-20 18:55:00,
2014-02-20 13:00:00,69.1,60.8,29.14,South,189,6.0,25.1,75,0.01,,,0.02,meteobridge,2014-02-20 19:00:00,
2014-02-20 13:05:00,68.0,58.3,29.15,SSW,202,15.0,23.0,71,0.01,,,0.02,meteobridge,2014-02-20 19:05:00,
2014-02-20 13:10:00,66.9,57.6,29.16,SSW,203,10.1,12.1,72,0.00,,,0.02,meteobridge,2014-02-20 19:10:00,
2014-02-20 13:15:00,66.2,57.7,29.16,SSW,192,6.0,14.1,74,0.00,,,0.02,meteobridge,2014-02-20 19:15:00,
2014-02-20 13:20:00,66.4,57.0,29.18,SSW,199,14.1,29.1,72,0.00,,,0.02,meteobridge,2014-02-20 19:20:00,
2014-02-20 13:25:00,67.3,56.3,29.20,West,263,17.0,25.1,68,0.00,,,0.02,meteobridge,2014-02-20 19:25:00,
2014-02-20 13:30:00,65.8,55.0,29.23,SSW,208,21.9,28.0,68,0.00,,,0.02,meteobridge,2014-02-20 19:30:00,
2014-02-20 13:35:00,63.3,53.1,29.24,SW,225,8.9,25.1,69,0.00,,,0.02,meteobridge,2014-02-20 19:35:00,
2014-02-20 13:40:00,61.3,51.4,29.24,SW,236,19.9,32.0,70,0.00,,,0.02,meteobridge,2014-02-20 19:40:00,
2014-02-20 13:45:00,59.7,50.4,29.25,SW,225,15.0,23.9,71,0.00,,,0.02,meteobridge,2014-02-20 19:45:00,
2014-02-20 13:50:00,58.6,49.6,29.26,SW,224,14.1,28.0,72,0.00,,,0.02,meteobridge,2014-02-20 19:50:00,
2014-02-20 13:55:00,57.6,48.6,29.28,WSW,246,13.0,27.1,72,0.00,,,0.02,meteobridge,2014-02-20 19:55:00,
2014-02-20 14:00:00,56.5,48.0,29.29,West,259,16.1,28.0,73,0.00,,,0.02,meteobridge,2014-02-20 20:00:00,
2014-02-20 14:05:00,55.4,47.3,29.29,West,277,21.0,21.0,74,0.00,,,0.02,meteobridge,2014-02-20 20:05:00,
2014-02-20 14:10:00,54.7,46.6,29.30,SW,226,8.9,21.0,74,0.00,,,0.02,meteobridge,2014-02-20 20:10:00,
2014-02-20 14:15:00,53.8,45.7,29.31,West,264,11.0,19.9,74,0.00,,,0.02,meteobridge,2014-02-20 20:15:00,
2014-02-20 14:20:00,52.0,43.5,29.32,WSW,245,17.9,17.9,73,0.00,,,0.02,meteobridge,2014-02-20 20:20:00,
2014-02-20 14:25:00,50.2,42.3,29.33,SW,232,12.1,21.0,74,0.00,,,0.02,meteobridge,2014-02-20 20:25:00,
2014-02-20 14:31:00,48.7,41.2,29.35,WSW,241,17.9,23.0,75,0.00,,,0.02,meteobridge,2014-02-20 20:31:00,
2014-02-20 14:36:00,47.3,40.1,29.36,WSW,242,6.0,23.0,76,0.00,,,0.02,meteobridge,2014-02-20 20:36:00,
2014-02-20 14:41:00,46.2,39.4,29.36,WSW,239,13.0,21.0,77,0.00,,,0.02,meteobridge,2014-02-20 20:41:00,
2014-02-20 14:46:00,45.7,38.8,29.38,SW,221,11.0,21.0,77,0.00,,,0.02,meteobridge,2014-02-20 20:46:00,
2014-02-20 14:51:00,44.8,37.9,29.39,SW,229,17.9,25.1,77,0.00,,,0.02,meteobridge,2014-02-20 20:51:00,
2014-02-20 14:56:00,44.1,37.4,29.40,West,272,21.9,30.0,77,0.00,,,0.02,meteobridge,2014-02-20 20:56:00,
2014-02-20 15:01:00,43.5,37.0,29.40,WSW,252,14.1,19.0,78,0.00,,,0.02,meteobridge,2014-02-20 21:01:00,
2014-02-20 15:06:00,43.0,36.7,29.41,West,261,6.0,17.9,78,0.00,,,0.02,meteobridge,2014-02-20 21:06:00,
2014-02-20 15:11:00,42.6,36.3,29.42,SW,229,8.9,23.9,78,0.00,,,0.02,meteobridge,2014-02-20 21:11:00,
2014-02-20 15:16:00,42.4,36.1,29.43,WSW,247,4.9,17.0,78,0.00,,,0.02,meteobridge,2014-02-20 21:16:00,
2014-02-20 15:21:00,42.3,36.1,29.44,WSW,248,13.0,25.9,79,0.00,,,0.02,meteobridge,2014-02-20 21:21:00,
2014-02-20 15:26:00,42.1,35.8,29.45,WSW,252,6.0,13.0,78,0.00,,,0.02,meteobridge,2014-02-20 21:26:00,
2014-02-20 15:31:00,41.7,35.4,29.46,West,269,16.1,25.9,78,0.00,,,0.02,meteobridge,2014-02-20 21:31:00,
2014-02-20 15:36:00,41.5,35.2,29.46,West,271,14.1,19.9,78,0.00,,,0.02,meteobridge,2014-02-20 21:36:00,
2014-02-20 15:41:00,41.4,35.1,29.47,SSW,209,17.0,25.1,78,0.00,,,0.02,meteobridge,2014-02-20 21:41:00,
2014-02-20 15:46:00,41.2,34.9,29.48,SW,234,11.0,19.0,78,0.00,,,0.02,meteobridge,2014-02-20 21:46:00,
2014-02-20 15:51:00,41.2,34.9,29.49,SW,236,6.0,23.9,78,0.00,,,0.02,meteobridge,2014-02-20 21:51:00,
2014-02-20 15:56:00,41.0,34.7,29.49,WSW,258,14.1,17.0,78,0.00,,,0.02,meteobridge,2014-02-20 21:56:00,
2014-02-20 16:01:00,41.0,34.7,29.50,WSW,250,11.0,16.1,78,0.00,,,0.02,meteobridge,2014-02-20 22:01:00,
2014-02-20 16:06:00,41.2,34.9,29.51,WNW,285,11.0,17.0,78,0.00,,,0.02,meteobridge,2014-02-20 22:06:00,
2014-02-20 16:12:00,41.2,34.9,29.52,West,264,11.0,16.1,78,0.00,,,0.02,meteobridge,2014-02-20 22:12:00,
2014-02-20 16:17:00,41.2,34.9,29.52,SW,234,2.9,19.0,78,0.00,,,0.02,meteobridge,2014-02-20 22:17:00,
2014-02-20 16:22:00,41.2,34.9,29.53,WSW,251,6.9,23.9,78,0.00,,,0.02,meteobridge,2014-02-20 22:22:00,
2014-02-20 16:27:00,41.4,35.1,29.54,West,273,8.1,15.0,78,0.00,,,0.02,meteobridge,2014-02-20 22:27:00,
2014-02-20 16:32:00,41.4,35.1,29.54,WNW,300,13.0,14.1,78,0.00,,,0.02,meteobridge,2014-02-20 22:32:00,
2014-02-20 16:37:00,41.2,34.9,29.55,West,267,12.1,15.0,78,0.00,,,0.02,meteobridge,2014-02-20 22:37:00,
2014-02-20 16:42:00,40.8,34.9,29.56,WSW,246,10.1,19.0,79,0.00,,,0.02,meteobridge,2014-02-20 22:42:00,
2014-02-20 16:47:00,40.5,34.7,29.57,WSW,252,12.1,23.0,80,0.00,,,0.02,meteobridge,2014-02-20 22:47:00,
2014-02-20 16:52:00,40.3,34.5,29.57,West,269,6.0,17.0,80,0.00,,,0.02,meteobridge,2014-02-20 22:52:00,
2014-02-20 16:57:00,40.3,34.5,29.57,WSW,245,4.9,16.1,80,0.00,,,0.02,meteobridge,2014-02-20 22:57:00,
2014-02-20 17:02:00,40.3,34.5,29.58,West,280,14.1,21.0,80,0.00,,,0.02,meteobridge,2014-02-20 23:02:00,
2014-02-20 17:07:00,40.3,34.5,29.60,SW,234,6.9,19.9,80,0.00,,,0.02,meteobridge,2014-02-20 23:07:00,
2014-02-20 17:12:00,40.5,34.7,29.60,SW,236,0.9,11.0,80,0.00,,,0.02,meteobridge,2014-02-20 23:12:00,
2014-02-20 17:17:00,40.5,34.5,29.60,SW,219,21.0,21.0,79,0.00,,,0.02,meteobridge,2014-02-20 23:17:00,
2014-02-20 17:22:00,40.5,34.5,29.61,West,259,6.0,12.1,79,0.00,,,0.02,meteobridge,2014-02-20 23:22:00,
2014-02-20 17:27:00,40.6,34.7,29.62,West,271,4.9,17.9,79,0.00,,,0.02,meteobridge,2014-02-20 23:27:00,
2014-02-20 17:32:00,40.6,34.3,29.63,WSW,252,17.0,17.9,78,0.00,,,0.02,meteobridge,2014-02-20 23:32:00,
2014-02-20 17:37:00,40.6,34.3,29.63,West,261,6.9,19.0,78,0.00,,,0.02,meteobridge,2014-02-20 23:37:00,
2014-02-20 17:42:00,40.6,34.3,29.63,NW,315,14.1,17.9,78,0.00,,,0.02,meteobridge,2014-02-20 23:42:00,
2014-02-20 17:47:00,40.6,34.3,29.64,WSW,250,6.9,19.9,78,0.00,,,0.02,meteobridge,2014-02-20 23:47:00,
2014-02-20 17:52:00,40.6,34.3,29.65,WSW,257,10.1,14.1,78,0.00,,,0.02,meteobridge,2014-02-20 23:52:00,
2014-02-20 17:57:00,40.6,34.3,29.65,WNW,288,11.0,17.0,78,0.00,,,0.02,meteobridge,2014-02-20 23:57:00,
2014-02-20 18:02:00,40.6,34.3,29.66,WSW,248,6.9,21.0,78,0.00,,,0.02,meteobridge,2014-02-21 00:02:00,
2014-02-20 18:07:00,40.6,34.0,29.66,West,262,8.9,12.1,77,0.00,,,0.02,meteobridge,2014-02-21 00:07:00,
2014-02-20 18:12:00,40.6,34.0,29.66,West,263,15.0,19.9,77,0.00,,,0.02,meteobridge,2014-02-21 00:12:00,
2014-02-20 18:17:00,40.6,34.0,29.67,WSW,250,8.9,11.0,77,0.00,,,0.02,meteobridge,2014-02-21 00:17:00,
2014-02-20 18:22:00,40.5,33.8,29.67,West,269,13.0,15.0,77,0.00,,,0.02,meteobridge,2014-02-21 00:22:00,
2014-02-20 18:27:00,40.3,33.6,29.67,West,281,6.0,14.1,77,0.00,,,0.02,meteobridge,2014-02-21 00:27:00,
2014-02-20 18:32:00,40.1,33.4,29.66,WSW,257,8.9,19.9,77,0.00,,,0.02,meteobridge,2014-02-21 00:32:00,
2014-02-20 18:37:00,39.9,33.3,29.66,WSW,250,8.9,12.1,77,0.00,,,0.02,meteobridge,2014-02-21 00:37:00,
2014-02-20 18:42:00,39.7,33.1,29.67,West,276,8.1,12.1,77,0.00,,,0.02,meteobridge,2014-02-21 00:42:00,
2014-02-20 18:47:00,39.7,33.1,29.67,West,263,4.0,6.9,77,0.00,,,0.02,meteobridge,2014-02-21 00:47:00,
2014-02-20 18:53:00,39.6,32.9,29.67,West,280,2.9,12.1,77,0.00,,,0.02,meteobridge,2014-02-21 00:53:00,
2014-02-20 18:58:00,39.4,32.7,29.67,West,273,4.9,11.0,77,0.00,,,0.02,meteobridge,2014-02-21 00:58:00,
2014-02-20 19:03:00,39.4,32.7,29.67,WSW,249,6.0,11.0,77,0.00,,,0.02,meteobridge,2014-02-21 01:03:00,
2014-02-20 19:08:00,39.2,32.5,29.67,WSW,242,2.9,13.0,77,0.00,,,0.02,meteobridge,2014-02-21 01:08:00,
2014-02-20 19:13:00,39.0,32.4,29.67,WSW,249,4.0,11.0,77,0.00,,,0.02,meteobridge,2014-02-21 01:13:00,
2014-02-20 19:18:00,39.0,32.4,29.68,WSW,241,2.9,8.9,77,0.00,,,0.02,meteobridge,2014-02-21 01:18:00,
2014-02-20 19:23:00,38.8,32.2,29.68,SW,235,4.0,8.9,77,0.00,,,0.02,meteobridge,2014-02-21 01:23:00,
2014-02-20 19:28:00,38.8,32.2,29.68,SW,234,2.0,11.0,77,0.00,,,0.02,meteobridge,2014-02-21 01:28:00,
2014-02-20 19:33:00,38.8,32.2,29.68,SW,225,4.9,10.1,77,0.00,,,0.02,meteobridge,2014-02-21 01:33:00,
2014-02-20 19:38:00,38.7,32.0,29.68,SW,234,6.0,13.0,77,0.00,,,0.02,meteobridge,2014-02-21 01:38:00,
2014-02-20 19:43:00,38.7,32.0,29.68,WSW,246,6.0,10.1,77,0.00,,,0.02,meteobridge,2014-02-21 01:43:00,
2014-02-20 19:48:00,38.7,32.0,29.68,WSW,240,4.0,6.0,77,0.00,,,0.02,meteobridge,2014-02-21 01:48:00,
2014-02-20 19:53:00,38.5,32.2,29.68,WSW,240,2.0,6.0,78,0.00,,,0.02,meteobridge,2014-02-21 01:53:00,
2014-02-20 19:58:00,38.5,31.8,29.68,SW,234,4.0,6.9,77,0.00,,,0.02,meteobridge,2014-02-21 01:58:00,
2014-02-20 20:03:00,38.3,32.0,29.68,WSW,238,2.0,4.9,78,0.00,,,0.02,meteobridge,2014-02-21 02:03:00,
2014-02-20 20:08:00,38.1,31.8,29.68,WSW,238,4.0,8.9,78,0.00,,,0.02,meteobridge,2014-02-21 02:08:00,
2014-02-20 20:14:00,38.1,31.8,29.68,SW,234,0.9,4.9,78,0.00,,,0.02,meteobridge,2014-02-21 02:14:00,
2014-02-20 20:19:00,38.1,31.8,29.68,SW,226,2.9,10.1,78,0.00,,,0.02,meteobridge,2014-02-21 02:19:00,
2014-02-20 20:24:00,38.1,31.8,29.68,SW,226,2.9,4.0,78,0.00,,,0.02,meteobridge,2014-02-21 02:24:00,
2014-02-20 20:29:00,37.9,31.6,29.68,SW,227,4.9,10.1,78,0.00,,,0.02,meteobridge,2014-02-21 02:29:00,
2014-02-20 20:34:00,37.9,31.6,29.68,SW,225,2.0,6.0,78,0.00,,,0.02,meteobridge,2014-02-21 02:34:00,
2014-02-20 20:39:00,37.9,31.6,29.68,SW,225,2.9,6.9,78,0.00,,,0.02,meteobridge,2014-02-21 02:39:00,
2014-02-20 20:44:00,37.9,31.6,29.68,SW,234,4.0,11.0,78,0.00,,,0.02,meteobridge,2014-02-21 02:44:00,
2014-02-20 20:49:00,37.8,31.5,29.68,SW,234,4.0,4.0,78,0.00,,,0.02,meteobridge,2014-02-21 02:49:00,
2014-02-20 20:54:00,37.9,31.6,29.68,SW,227,4.9,10.1,78,0.00,,,0.02,meteobridge,2014-02-21 02:54:00,
2014-02-20 20:59:00,38.1,31.8,29.68,SW,230,6.0,8.9,78,0.00,,,0.02,meteobridge,2014-02-21 02:59:00,
2014-02-20 21:04:00,38.1,31.8,29.68,SW,225,4.0,10.1,78,0.00,,,0.02,meteobridge,2014-02-21 03:04:00,
2014-02-20 21:09:00,38.5,32.2,29.68,SW,223,2.0,8.1,78,0.00,,,0.02,meteobridge,2014-02-21 03:09:00,
2014-02-20 21:14:00,38.5,32.2,29.68,SW,226,4.0,4.9,78,0.00,,,0.02,meteobridge,2014-02-21 03:14:00,
2014-02-20 21:19:00,38.5,32.2,29.68,SW,232,2.9,11.0,78,0.00,,,0.02,meteobridge,2014-02-21 03:19:00,
2014-02-20 21:24:00,38.7,32.4,29.68,SW,219,6.0,6.0,78,0.00,,,0.02,meteobridge,2014-02-21 03:24:00,
2014-02-20 21:29:00,38.7,32.4,29.68,SW,234,2.0,8.9,78,0.00,,,0.02,meteobridge,2014-02-21 03:29:00,
2014-02-20 21:34:00,38.7,32.4,29.68,SW,227,2.9,10.1,78,0.00,,,0.02,meteobridge,2014-02-21 03:34:00,
2014-02-20 21:39:00,38.7,32.4,29.68,SW,228,4.0,6.0,78,0.00,,,0.02,meteobridge,2014-02-21 03:39:00,
2014-02-20 21:44:00,38.8,32.5,29.68,WSW,238,4.0,6.0,78,0.00,,,0.02,meteobridge,2014-02-21 03:44:00,
2014-02-20 21:49:00,38.8,32.2,29.68,SW,230,4.9,10.1,77,0.00,,,0.02,meteobridge,2014-02-21 03:49:00,
2014-02-20 21:54:00,38.8,32.2,29.67,WSW,241,4.9,10.1,77,0.00,,,0.02,meteobridge,2014-02-21 03:54:00,
2014-02-20 21:59:00,38.8,32.2,29.67,SW,236,2.0,10.1,77,0.00,,,0.02,meteobridge,2014-02-21 03:59:00,
2014-02-20 22:05:00,38.7,32.0,29.67,SW,236,2.0,4.0,77,0.00,,,0.02,meteobridge,2014-02-21 04:05:00,
2014-02-20 22:10:00,38.7,32.0,29.68,SW,234,2.9,4.9,77,0.00,,,0.02,meteobridge,2014-02-21 04:10:00,
2014-02-20 22:15:00,38.7,32.0,29.67,WSW,238,8.9,12.1,77,0.00,,,0.02,meteobridge,2014-02-21 04:15:00,
2014-02-20 22:20:00,38.7,32.0,29.68,WSW,252,4.0,12.1,77,0.00,,,0.02,meteobridge,2014-02-21 04:20:00,
2014-02-20 22:25:00,38.8,32.0,29.67,WSW,257,4.9,13.0,76,0.00,,,0.02,meteobridge,2014-02-21 04:25:00,
2014-02-20 22:30:00,39.0,32.2,29.67,WSW,256,0.9,10.1,76,0.00,,,0.02,meteobridge,2014-02-21 04:30:00,
2014-02-20 22:35:00,39.0,32.2,29.67,WSW,244,4.0,6.0,76,0.00,,,0.02,meteobridge,2014-02-21 04:35:00,
2014-02-20 22:40:00,39.0,31.8,29.67,West,259,10.1,16.1,75,0.00,,,0.02,meteobridge,2014-02-21 04:40:00,
2014-02-20 22:45:00,39.0,31.8,29.67,West,265,6.9,13.0,75,0.00,,,0.02,meteobridge,2014-02-21 04:45:00,
2014-02-20 22:50:00,39.0,31.1,29.67,WSW,249,13.0,19.9,73,0.00,,,0.02,meteobridge,2014-02-21 04:50:00,
2014-02-20 22:55:00,39.2,31.6,29.66,West,264,4.9,15.0,74,0.00,,,0.02,meteobridge,2014-02-21 04:55:00,
2014-02-20 23:00:00,39.0,30.7,29.66,West,266,4.9,17.0,72,0.00,,,0.02,meteobridge,2014-02-21 05:00:00,
2014-02-20 23:01:00,39.0,30.7,29.66,WSW,245,4.0,17.0,72,0.00,,,0.02,meteobridge,2014-02-21 05:01:00,
2014-02-20 23:02:00,39.0,30.7,29.66,WNW,290,6.9,16.1,72,0.00,,,0.02,meteobridge,2014-02-21 05:02:00,
2014-02-20 23:06:00,39.0,30.7,29.66,West,273,4.0,13.0,72,0.00,,,0.02,meteobridge,2014-02-21 05:06:00,
2014-02-20 23:11:00,38.8,30.2,29.66,WSW,257,6.9,23.0,71,0.00,,,0.02,meteobridge,2014-02-21 05:11:00,
2014-02-20 23:16:00,38.8,29.8,29.66,WNW,290,11.0,14.1,70,0.00,,,0.02,meteobridge,2014-02-21 05:16:00,
2014-02-20 23:21:00,38.8,29.8,29.66,NW,304,10.1,11.0,70,0.00,,,0.02,meteobridge,2014-02-21 05:21:00,
2014-02-20 23:26:00,38.7,29.7,29.66,WSW,256,16.1,19.9,70,0.00,,,0.02,meteobridge,2014-02-21 05:26:00,
2014-02-20 23:31:00,38.7,29.3,29.66,West,259,6.9,15.0,69,0.00,,,0.02,meteobridge,2014-02-21 05:31:00,
2014-02-20 23:36:00,38.5,28.8,29.65,WSW,242,4.0,17.0,68,0.00,,,0.02,meteobridge,2014-02-21 05:36:00,
2014-02-20 23:41:00,38.3,28.9,29.65,West,260,6.9,10.1,69,0.00,,,0.02,meteobridge,2014-02-21 05:41:00,
2014-02-20 23:46:00,38.1,28.9,29.65,WNW,297,12.1,14.1,69,0.00,,,0.02,meteobridge,2014-02-21 05:46:00,
2014-02-20 23:51:00,37.9,28.4,29.66,West,267,14.1,21.0,68,0.00,,,0.02,meteobridge,2014-02-21 05:51:00,
2014-02-20 23:56:00,37.8,27.9,29.66,WSW,249,17.9,17.9,67,0.00,,,0.02,meteobridge,2014-02-21 05:56:00,